Tracking 19831 objects as of 23-Aug-2019
HD Live streaming from Space Station
objects crossing your sky now

COSMOS 2251 DEB

Track COSMOS 2251 DEB now!
10-day predictions


NORAD ID: 37273
Int'l Code: 1993-036BHM
Perigee: 714.4 km
Apogee: 759.7 km
Inclination: 74.0 °
Period: 99.4 minutes
Semi major axis: 7108 km
RCS: 0.0105 m2 (small)
Launch date: June 16, 1993
Source: Commonwealth of Independent States (former USSR) (CIS)
Launch site: PLESETSK MISSILE AND SPACE COMPLEX (PKMTR)

Note: This is SATELLITE DEBRIS
aabbcc
Your satellite tracking list
Your tracking list is empty




NASA's NSSDC Master Catalog

Two Line Element Set (TLE):
1 37273U 93036BHM 19233.40280006  .00001039  00000-0  28141-3 0  9993
2 37273  74.0064 133.1438 0031830  32.2055 328.1039 14.48690568489299
Source of the keplerian elements: AFSPC